Погода в Серове

Погода в Серове : погода сейчас, прогноз погоды и архив. Всё, что Вы хотите узнать о погоде в Серове!

Поиск расширенной информации на нашем сайте:

Другие новости

Новости СМИ2

Главная страница сайта

Новости сайта

03.07.2017

Напоминаем, что на нашем специализированном сайте Метеоцентр.Азия вы можете получить высокодетализированные автоматические прогнозы погоды по пунктам России, СНГ и мира в авиационном формате (включающие направление и скорость ветра, видимость, явления погоды, количество и форму облачности, нижнюю и верхнюю границу облачности).


Погода в Серове - сегодня

Время (UTC), дата Ветер
(°,м/с) 
Видим.   Явления Облачность Т
(°С)
Тd
(°С)
f(%) Тe
(°С)
Pmin
(гПа)
dP
(гПа)
Po
(мм)
O2
(г/м3)
Тmin Tmax R s Состояние
почвы
21 10.10.18 210 (ЮЗ) 3{11}  10 км    10/10 600 м 
[Sc]
+3.6 -0.1 77 +2  996.6  -4.9  736  293           
00 11.10.18 200 (Ю) 2000 м  слаб. дождь  10/10 300 м 
[Frnb]
+2.7 +0.9 88 +2  993.1  -3.5  734  292           
03 11.10.18 270 (З) 20000 м  слаб. дождь  10/10 300 м 
[Frnb]
+2.7 +1.1 89 +3  991.4  -1.7  732  292  +2.7    0.7    влажная 
06 11.10.18 300 (СЗ) 20000 м  {дождь}  10/10 300 м 
[Frnb]
+3.6 +1.7 87 +2  991.7  0.3  732  291           
18 11.10.18 310 (СЗ) 10 км  {дождь}  10/10 600 м 
[Sc]
+3.7 -0.5 74 +2  1003.7  2.2  741  295           
03 12.10.18 290 (З) 4{10}  20000 м    4/3 600 м верхняя 
[Sc|Ci fib]
+0.1 -6.1 63 -2  1008.2  0.7  745  301  -0    0.7    замёрзшая 
06 12.10.18 310 (СЗ) 20000 м    9/8 600 м средняя 
[Sc|Ac trans]
+2.4 -6.1 53 +1  1008.2  0.1  745  298           
09 12.10.18 290 (З) 20000 м    9/9 600 м 
[Sc]
+3.3 -4.6 56 +2  1007.6  -0.5  744  297           
12 12.10.18 300 (СЗ) 5{10}  20000 м    9/9 600 м 
[Sc]
+3.4 -5.3 53 +1  1007  -0.5  744  297           
18 12.10.18 270 (З) 10 км    ясно 
-0.9 -4.5 77 -2  1006.7  -0.6  743  301           
21 12.10.18 280 (З) 10 км    10/10 600 м 
[Sc]
+0.2 -4.8 69 -2  1006  -0.6  743  300           
00 13.10.18 280 (З) 10 км    10/10 600 м 
[Sc]
+1.5 -3.9 67 1005.8  0.1  743  298           
06 13.10.18 300 (СЗ) 20000 м    9/9 600 м 
[Sc]
+3.2 -4.5 57 +1  1006.4  0.5  743  297           
09 13.10.18 310 (СЗ) 4{10}  20000 м    9/9 600 м 
[Cu Sc]
+4.2 -6 47 +2  1006.8  0.4  744  296           
18 13.10.18 290 (З) 10 км    8/8 600 м 
[Sc]
+0.9 -4 70 -1  1007.8  -0.3  744  299           
21 13.10.18 290 (З) 10 км    ясно 
-0.5 -5.3 70 -2  1008.4  0.5  745  301           
00 14.10.18 300 (СЗ) 10 км    10/10 600 м 
[Sc]
+0.5 -3.6 74 -2  1008.5  0.2  745  300           
03 14.10.18 300 (СЗ) 20000 м  в посл. час снег  10/10 300 м 
[Frnb]
+0.8 -4.3 69 -1  1009.1  0.6  745  300  -0.6    0.0    замёрзшая 
12 14.10.18 300 (СЗ) 20000 м  слаб. снег  10/10 300 м 
[Frnb]
+1.5 -1.2 82 1014  1.7  749  300           
18 14.10.18 320 (СЗ) 10 км  {снег}  8/8 600 м 
[Sc]
+1.3 -4.1 67 +1  1016.5  0.8  751  302           
21 14.10.18 330 (СЗ) 10 км    6/6 600 м 
[Sc]
+1.1 -4 69 1017.7  1.1  752  302           
00 15.10.18 260 (З) 10 км    6/6 600 м 
[Sc]
+0.3 -2.9 79 +1  1018.7  0.9  752  303           
06 15.10.18 290 (З) 20000 м    10/10 600 м 
[Sc]
+0.9 -3.5 72 1020  0.3  753  303           
09 15.10.18 240 (ЮЗ) 20000 м    9/9 600 м 
[Cu Sc]
+3.6 -4.1 57 +4  1019.9  0.1  753  300           
12 15.10.18 170 (Ю) 20000 м    9/9 600 м 
[Sc]
+2.8 -4.2 60 +4  1020  0.1  753  301           
Время (UTC), дата Ветер
(°,м/с) 
Видим.   Явления Облачность Т
(°С)
Тd
(°С)
f(%) Тe
(°С)
Pmin
(гПа)
dP
(гПа)
Po
(мм)
O2
(г/м3)
Тmin Tmax R s Состояние
почвы

Для получения пояснительной информации подведите курсор к названию столбца.

ПОГОДА в Серове - архив

Всё, что Вы хотите узнать о погоде в Серове - удобно и подробно!

Выберите нужную дату (начиная с 1 января 2015* года) и нажмите кнопку "Найти".
Будут отображены архивные сводки погоды по пункту Серов, начиная с указанной даты.


Отображать данные в формате CSV (для использования в таблицах Excel)


Внимание! Наш архив погоды предназначен исключительно для личного некоммерческого использования в познавательных целях. Если Вам необходимы официальные справки о состоянии погоды (для производственных, юридических, коммерческих и т.п. целей), обращайтесь в органы Росгидромета.

*Примечание: данная дата относится к архиву по метеостанциям СССР (Россия, СНГ, Балтия).
Архив по метеостанциям Зарубежной Европы и Азии (кроме Китая) хранится 10 дней, по другим регионам земного шара (Китай, Африка, Америка, Австралия, Океания) - 1 день.

Серов - район местоположения метеостанции


Название, широта, долгота, высота метеостанции:
Серов 59.6°ш. 60.5°д. 130 м над ур. моря [Российская Федерация]

Дополнительная информация

В oтличие oт бoльшинства пoгoдных сайтoв мы публикуем пoдрoбную метеoинфoрмацию в детальнoм прoфессиoнальнoм фoрмате.

Характеристики температуры и влажнoсти вoздуха измеряются на высoте 2 м в тени вдали oт зданий и деревьев.
Скoрoсть ветра измеряется на высoте 10 м (на урoвне рoста челoвека скoрoсть ветра ниже в 1.5-2 раза). Если метеoстанция нахoдится в гoрoде или в лесу, тo скoрoсть ветра занижена на 2-4 м/с пo сравнению с oткрытым местoм. Скoрoсть ветра над акватoриями крупных рек и oзёр, а также на вершинах хoлмoв на 2-5 м/с выше, чем в oбычных услoвиях.
Атмoсфернoе давление в разных тoчках местнoсти мoжет значительнo oтличаться oт давления на метеoстанции, в зависимoсти oт услoвий рельефа (при пoдъёме на 10 м давление пoнижается примернo на 1 мм рт.ст.).